sat.trackr.live / text

‹ back to catalog

STARLINK-4078

NORAD 52689 · 2022-053AK

PAYLOAD ACTIVE UNKNOWN

§ Identity

Operator
Country
US
Launch date
2022-05-18
Launch site
AFETR
Launch vehicle
Mass (kg)
RCS (m²)

Purposes: comms

External: N2YO · Heavens-Above · Gunter

§ Orbital elements

Epoch: 2026-05-25T04:41:02.849568Z

Period
91.90 min
Inclination
53.2073°
Eccentricity
0.0005125
Mean motion
15.66908409 rev/d
Perigee alt
364.3 km
Apogee alt
371.2 km
Semi-major
6,745.9 km
B*
1.0486e-3
RAAN
72.3123°
Arg perigee
78.5235°
Mean anomaly
281.6358°
Rev number
22,395

§ Raw data

STARLINK-40781 52689U 22053AK  26145.19517187  .00114325  00000+0  10486-2 0  99952 52689  53.2073  72.3123 0005125  78.5235 281.6358 15.66908409223955

JSON: /api/v1/satellites/52689 · /tle

For live sub-satellite position, see the globe view (requires WebGL).

§ Visibility from observer

Set your observer location to see the next 7 days of passes ≥ 10°. The values pass through the URL so the page stays shareable.

No JS? Fill the form by hand. The geolocation button needs JavaScript.